,,,PA_Meas_PMT16A,,PR_Meas_QMR101_102,,RH_Meas_QMH101,,SR_Meas_QMS101,,TA_Meas_QMH101,,GenWind,,GenWind,
date,time,status,PA,status,PR,status,RH,status,SR,status,TA,status,DirAvg,status,SpdAvg,
2008-12-17, 00:00:04,VALID,1004.23,VALID,0,VALID,93.2325,VALID,0,VALID,24.8911,VALID,53,VALID,0.0808594,
2008-12-17, 00:01:04,VALID,1004.21,VALID,0,VALID,93.2478,VALID,0,VALID,24.8911,VALID,52,VALID,0.0890625,
2008-12-17, 00:02:04,VALID,1004.21,VALID,0,VALID,93.2478,VALID,0,VALID,24.8911,VALID,52,VALID,0.16875,
2008-12-17, 00:03:04,VALID,1004.21,VALID,0,VALID,93.2402,VALID,0,VALID,24.8911,VALID,51,VALID,0.167187,
2008-12-17, 00:04:04,VALID,1004.19,VALID,0,VALID,93.2402,VALID,0,VALID,24.8911,VALID,51,VALID,0.34375,
2008-12-17, 00:05:04,VALID,1004.22,VALID,0,VALID,93.2325,VALID,0,VALID,24.8911,VALID,51,VALID,0.355469,
2008-12-17, 00:06:04,VALID,1004.19,VALID,0,VALID,93.1944,VALID,0,VALID,24.8911,VALID,51,VALID,0.3375,
2008-12-17, 00:07:04,VALID,1004.18,VALID,0,VALID,93.2173,VALID,0,VALID,24.9125,VALID,49,VALID,0.430859,
2008-12-17, 00:08:04,VALID,1004.19,VALID,0,VALID,93.2402,VALID,0,VALID,24.9106,VALID,46,VALID,0.392188,
2008-12-17, 00:09:04,VALID,1004.21,VALID,0,VALID,93.2478,VALID,0,VALID,24.8911,VALID,46,VALID,0.355078,
2008-12-17, 00:10:04,VALID,1004.21,VALID,0,VALID,93.1944,VALID,0,VALID,24.9106,VALID,46,VALID,0.253516,
2008-12-17, 00:11:04,VALID,1004.21,VALID,0,VALID,93.1639,VALID,0,VALID,24.93,VALID,43,VALID,0.438281,
2008-12-17, 00:12:04,VALID,1004.21,VALID,0,VALID,93.1715,VALID,0,VALID,24.9106,VALID,18,VALID,0.355078,
2008-12-17, 00:13:04,VALID,1004.21,VALID,0,VALID,93.1791,VALID,0.100563,VALID,24.9106,VALID,18,VALID,0.294141,
2008-12-17, 00:14:04,VALID,1004.18,VALID,0,VALID,93.1944,VALID,0,VALID,24.9106,VALID,18,VALID,0.155469,
2008-12-17, 00:15:04,VALID,1004.18,VALID,0,VALID,93.2173,VALID,0,VALID,24.93,VALID,18,VALID,0.133984,
2008-12-17, 00:16:04,VALID,1004.16,VALID,0,VALID,93.2249,VALID,0,VALID,24.93,VALID,18,VALID,0,
2008-12-17, 00:17:04,VALID,1004.15,VALID,0,VALID,93.1944,VALID,0,VALID,24.9106,VALID,18,VALID,0,
2008-12-17, 00:18:04,VALID,1004.15,VALID,0,VALID,93.2249,VALID,0,VALID,24.9087,VALID,18,VALID,0.00195313,
2008-12-17, 00:19:04,VALID,1004.12,VALID,0,VALID,93.2402,VALID,0.100563,VALID,24.93,VALID,18,VALID,0.0578125,
2008-12-17, 00:20:04,VALID,1004.13,VALID,0,VALID,93.1563,VALID,0,VALID,24.8911,VALID,18,VALID,0.21875,
2008-12-17, 00:21:04,VALID,1004.11,VALID,0,VALID,93.1639,VALID,0,VALID,24.8716,VALID,18,VALID,0.0796875,
2008-12-17, 00:22:04,VALID,1004.12,VALID,0,VALID,93.2249,VALID,0,VALID,24.8716,VALID,18,VALID,0,
2008-12-17, 00:23:04,VALID,1004.11,VALID,0,VALID,93.2249,VALID,0,VALID,24.8716,VALID,18,VALID,0,
2008-12-17, 00:24:04,VALID,1004.13,VALID,0,VALID,93.2554,VALID,0,VALID,24.9125,VALID,18,VALID,0,
2008-12-17, 00:25:04,VALID,1004.12,VALID,0,VALID,93.2707,VALID,0,VALID,24.8716,VALID,18,VALID,0,
2008-12-17, 00:26:04,VALID,1004.11,VALID,0,VALID,93.2325,VALID,0,VALID,24.8716,VALID,18,VALID,0,
2008-12-17, 00:27:04,VALID,1004.07,VALID,0,VALID,93.3012,VALID,0,VALID,24.9125,VALID,18,VALID,0,
2008-12-17, 00:28:04,VALID,1004.06,VALID,0,VALID,93.3012,VALID,0,VALID,24.8716,VALID,18,VALID,0,
2008-12-17, 00:29:04,VALID,1004.06,VALID,0,VALID,93.3851,VALID,0,VALID,24.8716,VALID,18,VALID,0,
2008-12-17, 00:30:04,VALID,1004.06,VALID,0,VALID,93.4156,VALID,0,VALID,24.8716,VALID,18,VALID,0,
2008-12-17, 00:31:04,VALID,1004.08,VALID,0,VALID,93.4614,VALID,0,VALID,24.9106,VALID,18,VALID,0,
2008-12-17, 00:32:04,VALID,1004.07,VALID,0,VALID,93.4996,VALID,0,VALID,24.9106,VALID,18,VALID,0,
2008-12-17, 00:33:04,VALID,1004.04,VALID,0,VALID,93.5224,VALID,0,VALID,24.9514,VALID,18,VALID,0,
2008-12-17, 00:34:04,VALID,1004.05,VALID,0,VALID,93.5072,VALID,0,VALID,24.9514,VALID,18,VALID,0,
2008-12-17, 00:35:04,VALID,1004.03,VALID,0,VALID,93.4996,VALID,0,VALID,24.93,VALID,18,VALID,0,
2008-12-17, 00:36:04,VALID,1004.03,VALID,0,VALID,93.5758,VALID,0,VALID,24.9495,VALID,18,VALID,0,
2008-12-17, 00:37:04,VALID,1004.03,VALID,0,VALID,93.5377,VALID,0,VALID,24.9514,VALID,18,VALID,0,
2008-12-17, 00:38:04,VALID,1004.01,VALID,0,VALID,93.5606,VALID,0,VALID,24.93,VALID,18,VALID,0,
2008-12-17, 00:39:04,VALID,1003.99,VALID,0,VALID,93.5606,VALID,0,VALID,24.9495,VALID,18,VALID,0,
2008-12-17, 00:40:04,VALID,1003.97,VALID,0,VALID,93.5682,VALID,0,VALID,24.93,VALID,18,VALID,0,
2008-12-17, 00:41:04,VALID,1003.95,VALID,0,VALID,93.5835,VALID,0,VALID,24.93,VALID,18,VALID,0.00664063,
2008-12-17, 00:42:04,VALID,1003.92,VALID,0,VALID,93.5758,VALID,0,VALID,24.9495,VALID,18,VALID,0.408203,
2008-12-17, 00:43:04,VALID,1003.91,VALID,0,VALID,93.5453,VALID,0,VALID,24.9319,VALID,18,VALID,0.486719,
2008-12-17, 00:44:04,VALID,1003.85,VALID,0,VALID,93.5301,VALID,0,VALID,24.9106,VALID,18,VALID,0.41875,
2008-12-17, 00:45:04,VALID,1003.83,VALID,0,VALID,93.5911,VALID,0,VALID,24.8503,VALID,18,VALID,0.203516,
2008-12-17, 00:46:04,VALID,1003.83,VALID,0,VALID,93.6064,VALID,0,VALID,24.8522,VALID,18,VALID,0.178516,
2008-12-17, 00:47:04,VALID,1003.82,VALID,0,VALID,93.6521,VALID,0,VALID,24.8522,VALID,18,VALID,0.155469,
2008-12-17, 00:48:04,VALID,1003.81,VALID,0,VALID,93.6521,VALID,0,VALID,24.8522,VALID,18,VALID,0.0792969,
2008-12-17, 00:49:04,VALID,1003.8,VALID,0,VALID,93.6598,VALID,0,VALID,24.8327,VALID,18,VALID,0,
2008-12-17, 00:50:04,VALID,1003.8,VALID,0,VALID,93.7208,VALID,0,VALID,24.854,VALID,18,VALID,0,
2008-12-17, 00:51:04,VALID,1003.8,VALID,0,VALID,93.7208,VALID,0,VALID,24.8113,VALID,18,VALID,0,
2008-12-17, 00:52:04,VALID,1003.78,VALID,0,VALID,93.7895,VALID,0,VALID,24.8132,VALID,18,VALID,0,
2008-12-17, 00:53:04,VALID,1003.76,VALID,0,VALID,93.8429,VALID,0,VALID,24.8132,VALID,18,VALID,0,
2008-12-17, 00:54:04,VALID,1003.76,VALID,0,VALID,93.8657,VALID,0,VALID,24.8327,VALID,18,VALID,0,
2008-12-17, 00:55:04,VALID,1003.74,VALID,0,VALID,93.8963,VALID,0,VALID,24.8327,VALID,18,VALID,0.292188,
2008-12-17, 00:56:04,VALID,1003.7,VALID,0,VALID,93.8886,VALID,0,VALID,24.8132,VALID,18,VALID,0.0339844,
2008-12-17, 00:57:04,VALID,1003.67,VALID,0,VALID,93.9039,VALID,0,VALID,24.7937,VALID,18,VALID,0.0535156,
2008-12-17, 00:58:04,VALID,1003.65,VALID,0,VALID,93.8963,VALID,0,VALID,24.7937,VALID,18,VALID,0.053125,
2008-12-17, 00:59:04,VALID,1003.63,VALID,0,VALID,93.8963,VALID,0,VALID,24.7937,VALID,18,VALID,0.375781,
2008-12-17, 01:00:04,VALID,1003.59,VALID,0,VALID,93.8963,VALID,0,VALID,24.7548,VALID,18,VALID,0.314844,
2008-12-17, 01:01:04,VALID,1003.58,VALID,0,VALID,93.9497,VALID,0,VALID,24.7761,VALID,18,VALID,0.348047,
2008-12-17, 01:02:04,VALID,1003.56,VALID,0,VALID,94.0107,VALID,0,VALID,24.7548,VALID,18,VALID,0.217187,
2008-12-17, 01:03:04,VALID,1003.55,VALID,0,VALID,93.9802,VALID,0,VALID,24.7761,VALID,18,VALID,0.216406,
2008-12-17, 01:04:04,VALID,1003.54,VALID,0,VALID,93.9878,VALID,0,VALID,24.7353,VALID,18,VALID,0.140234,
2008-12-17, 01:05:04,VALID,1003.52,VALID,0,VALID,94.0031,VALID,0,VALID,24.7159,VALID,18,VALID,0,
2008-12-17, 01:06:04,VALID,1003.53,VALID,0,VALID,94.0336,VALID,0,VALID,24.7353,VALID,18,VALID,0,
2008-12-17, 01:07:04,VALID,1003.53,VALID,0,VALID,94.0336,VALID,0,VALID,24.7159,VALID,18,VALID,0,
2008-12-17, 01:08:04,VALID,1003.52,VALID,0,VALID,94.0565,VALID,0,VALID,24.7353,VALID,18,VALID,0,
2008-12-17, 01:09:04,VALID,1003.5,VALID,0,VALID,94.0641,VALID,0,VALID,24.7353,VALID,18,VALID,0,
2008-12-17, 01:10:04,VALID,1003.5,VALID,0,VALID,94.0794,VALID,0.100563,VALID,24.7548,VALID,18,VALID,0,
2008-12-17, 01:11:04,VALID,1003.48,VALID,0,VALID,94.1251,VALID,0,VALID,24.7335,VALID,18,VALID,0.155859,
2008-12-17, 01:12:04,VALID,1003.48,VALID,0,VALID,94.0794,VALID,0,VALID,24.7743,VALID,18,VALID,0.337891,
2008-12-17, 01:13:04,VALID,1003.46,VALID,0,VALID,94.0946,VALID,0,VALID,24.7548,VALID,18,VALID,0.290625,
2008-12-17, 01:14:04,VALID,1003.44,VALID,0,VALID,94.1099,VALID,0,VALID,24.7548,VALID,18,VALID,0.320313,
2008-12-17, 01:15:04,VALID,1003.39,VALID,0,VALID,94.1099,VALID,0.100563,VALID,24.7548,VALID,18,VALID,0.389844,
2008-12-17, 01:16:04,VALID,1003.4,VALID,0,VALID,94.1328,VALID,0,VALID,24.7353,VALID,18,VALID,0.427734,
2008-12-17, 01:17:04,VALID,1003.38,VALID,0,VALID,94.1633,VALID,0,VALID,24.7548,VALID,18,VALID,0.482031,
2008-12-17, 01:18:04,VALID,1003.38,VALID,0,VALID,94.1862,VALID,0,VALID,24.7353,VALID,18,VALID,0.453516,
2008-12-17, 01:19:04,VALID,1003.33,VALID,0,VALID,94.1862,VALID,0.100563,VALID,24.7353,VALID,18,VALID,0.305859,
2008-12-17, 01:20:04,VALID,1003.32,VALID,0,VALID,94.2014,VALID,0,VALID,24.7353,VALID,18,VALID,0.39375,
2008-12-17, 01:21:04,VALID,1003.28,VALID,0,VALID,94.2548,VALID,0,VALID,24.7353,VALID,17,VALID,0.447656,
2008-12-17, 01:22:04,VALID,1003.26,VALID,0,VALID,94.2701,VALID,0,VALID,24.7353,VALID,17,VALID,0.300391,
2008-12-17, 01:23:04,VALID,1003.26,VALID,0,VALID,94.2701,VALID,0,VALID,24.7548,VALID,21,VALID,0.433594,
2008-12-17, 01:24:04,VALID,1003.23,VALID,0,VALID,94.2777,VALID,0,VALID,24.714,VALID,21,VALID,0.201172,
2008-12-17, 01:25:04,VALID,1003.21,VALID,0,VALID,94.2853,VALID,0,VALID,24.714,VALID,21,VALID,0.285156,
2008-12-17, 01:26:04,VALID,1003.21,VALID,0,VALID,94.2853,VALID,0.100563,VALID,24.714,VALID,21,VALID,0.233203,
2008-12-17, 01:27:04,VALID,1003.19,VALID,0,VALID,94.3006,VALID,0,VALID,24.7159,VALID,21,VALID,0,
2008-12-17, 01:28:04,VALID,1003.23,VALID,0,VALID,94.3082,VALID,0,VALID,24.7159,VALID,23,VALID,0.415625,
2008-12-17, 01:29:04,VALID,1003.21,VALID,0,VALID,94.293,VALID,0,VALID,24.7159,VALID,24,VALID,0,
2008-12-17, 01:30:04,VALID,1003.22,VALID,0,VALID,94.3235,VALID,0,VALID,24.7159,VALID,25,VALID,0.198047,
2008-12-17, 01:31:04,VALID,1003.19,VALID,0,VALID,94.3082,VALID,0,VALID,24.675,VALID,25,VALID,0.00664063,
2008-12-17, 01:32:04,VALID,1003.2,VALID,0,VALID,94.3082,VALID,0,VALID,24.7159,VALID,25,VALID,0,
2008-12-17, 01:33:04,VALID,1003.19,VALID,0,VALID,94.3006,VALID,0,VALID,24.6964,VALID,25,VALID,0,
2008-12-17, 01:34:04,VALID,1003.18,VALID,0,VALID,94.3006,VALID,0,VALID,24.6964,VALID,24,VALID,0,
2008-12-17, 01:35:04,VALID,1003.16,VALID,0,VALID,94.3158,VALID,0,VALID,24.675,VALID,25,VALID,0,
2008-12-17, 01:36:04,VALID,1003.16,VALID,0,VALID,94.3158,VALID,0.100563,VALID,24.675,VALID,25,VALID,0,
2008-12-17, 01:37:04,VALID,1003.15,VALID,0,VALID,94.3311,VALID,0.100563,VALID,24.6964,VALID,25,VALID,0,
2008-12-17, 01:38:04,VALID,1003.13,VALID,0,VALID,94.3464,VALID,0,VALID,24.6945,VALID,25,VALID,0,
2008-12-17, 01:39:04,VALID,1003.1,VALID,0,VALID,94.354,VALID,0.100563,VALID,24.6964,VALID,25,VALID,0,
2008-12-17, 01:40:04,VALID,1003.09,VALID,0,VALID,94.3692,VALID,0.100563,VALID,24.7159,VALID,25,VALID,0,
2008-12-17, 01:41:04,VALID,1003.08,VALID,0,VALID,94.4227,VALID,0,VALID,24.675,VALID,25,VALID,0.164844,
2008-12-17, 01:42:04,VALID,1003.07,VALID,0,VALID,94.4227,VALID,0,VALID,24.7353,VALID,25,VALID,0.293359,
2008-12-17, 01:43:04,VALID,1003.06,VALID,0,VALID,94.3998,VALID,0,VALID,24.7353,VALID,24,VALID,0.311328,
2008-12-17, 01:44:04,VALID,1003.01,VALID,0,VALID,94.415,VALID,0.100563,VALID,24.7159,VALID,24,VALID,0.235938,
2008-12-17, 01:45:04,VALID,1003.06,VALID,0,VALID,94.3998,VALID,0,VALID,24.7159,VALID,2,VALID,0.509375,
2008-12-17, 01:46:04,VALID,1003.01,VALID,0,VALID,94.415,VALID,0,VALID,24.7159,VALID,356,VALID,0.345313,
2008-12-17, 01:47:04,VALID,1002.99,VALID,0,VALID,94.3845,VALID,0,VALID,24.7159,VALID,354,VALID,0.385547,
2008-12-17, 01:48:04,VALID,1002.98,VALID,0,VALID,94.3921,VALID,0.100563,VALID,24.6964,VALID,354,VALID,0.491016,
2008-12-17, 01:49:04,VALID,1002.98,VALID,0,VALID,94.3921,VALID,0,VALID,24.7159,VALID,349,VALID,0.646484,
2008-12-17, 01:50:04,VALID,1002.96,VALID,0,VALID,94.415,VALID,0.100563,VALID,24.6945,VALID,347,VALID,0.567187,
2008-12-17, 01:51:04,VALID,1002.99,VALID,0,VALID,94.4379,VALID,0,VALID,24.6945,VALID,347,VALID,0.525391,
2008-12-17, 01:52:04,VALID,1002.96,VALID,0,VALID,94.4379,VALID,0,VALID,24.6964,VALID,347,VALID,0.641406,
2008-12-17, 01:53:04,VALID,1002.98,VALID,0,VALID,94.4379,VALID,0,VALID,24.7159,VALID,354,VALID,0.518359,
2008-12-17, 01:54:04,VALID,1002.98,VALID,0,VALID,94.4684,VALID,0,VALID,24.6964,VALID,357,VALID,0.419141,
2008-12-17, 01:55:04,VALID,1002.95,VALID,0,VALID,94.4684,VALID,0,VALID,24.6945,VALID,356,VALID,0.431641,
2008-12-17, 01:56:04,VALID,1002.97,VALID,0,VALID,94.4532,VALID,0,VALID,24.6964,VALID,356,VALID,0.281641,
2008-12-17, 01:57:04,VALID,1002.97,VALID,0,VALID,94.4761,VALID,0,VALID,24.6964,VALID,356,VALID,0.394141,
2008-12-17, 01:58:04,VALID,1002.97,VALID,0,VALID,94.4227,VALID,0,VALID,24.6964,VALID,356,VALID,0.421875,
2008-12-17, 01:59:04,VALID,1002.96,VALID,0,VALID,94.4074,VALID,0,VALID,24.675,VALID,350,VALID,0.208984,
2008-12-17, 02:00:04,VALID,1002.94,VALID,0,VALID,94.3998,VALID,0.100563,VALID,24.6964,VALID,350,VALID,0.407031,
2008-12-17, 02:01:04,VALID,1002.94,VALID,0,VALID,94.4074,VALID,0,VALID,24.6983,VALID,345,VALID,0.25,
2008-12-17, 02:02:04,VALID,1002.93,VALID,0,VALID,94.3845,VALID,0,VALID,24.6769,VALID,345,VALID,0.118359,
2008-12-17, 02:03:04,VALID,1002.93,VALID,0,VALID,94.3921,VALID,0,VALID,24.6769,VALID,345,VALID,0.00234375,
2008-12-17, 02:04:04,VALID,1002.95,VALID,0,VALID,94.3845,VALID,0,VALID,24.6769,VALID,345,VALID,0.139062,
2008-12-17, 02:05:04,VALID,1002.92,VALID,0,VALID,94.3692,VALID,0.100563,VALID,24.6964,VALID,345,VALID,0.191797,
2008-12-17, 02:06:04,VALID,1002.94,VALID,0,VALID,94.3464,VALID,0,VALID,24.6964,VALID,345,VALID,0.19375,
2008-12-17, 02:07:04,VALID,1002.94,VALID,0,VALID,94.3235,VALID,0,VALID,24.675,VALID,345,VALID,0,
2008-12-17, 02:08:04,VALID,1002.94,VALID,0,VALID,94.354,VALID,0.100563,VALID,24.7159,VALID,345,VALID,0.199219,
2008-12-17, 02:09:04,VALID,1002.92,VALID,0,VALID,94.3464,VALID,0,VALID,24.6769,VALID,345,VALID,0.0429688,
2008-12-17, 02:10:04,VALID,1002.93,VALID,0,VALID,94.3464,VALID,0.100563,VALID,24.7159,VALID,345,VALID,0.0648438,
2008-12-17, 02:11:04,VALID,1002.94,VALID,0,VALID,94.3006,VALID,0,VALID,24.675,VALID,345,VALID,0,
2008-12-17, 02:12:04,VALID,1002.9,VALID,0,VALID,94.2701,VALID,0,VALID,24.6964,VALID,326,VALID,0.433594,
2008-12-17, 02:13:04,VALID,1002.94,VALID,0,VALID,94.2624,VALID,0,VALID,24.6964,VALID,326,VALID,0.0269531,
2008-12-17, 02:14:04,VALID,1002.91,VALID,0,VALID,94.2777,VALID,0,VALID,24.7159,VALID,326,VALID,0.264453,
2008-12-17, 02:15:04,VALID,1002.92,VALID,0,VALID,94.2319,VALID,0.100563,VALID,24.7159,VALID,326,VALID,0.260156,
2008-12-17, 02:16:04,VALID,1002.91,VALID,0,VALID,94.209,VALID,0,VALID,24.714,VALID,326,VALID,0.283203,
2008-12-17, 02:17:04,VALID,1002.89,VALID,0,VALID,94.1633,VALID,0,VALID,24.7353,VALID,326,VALID,0,
2008-12-17, 02:18:04,VALID,1002.89,VALID,0,VALID,94.1633,VALID,0.100563,VALID,24.7353,VALID,326,VALID,0,
2008-12-17, 02:19:04,VALID,1002.84,VALID,0,VALID,94.1556,VALID,0,VALID,24.7548,VALID,326,VALID,0,
2008-12-17, 02:20:04,VALID,1002.85,VALID,0,VALID,94.1328,VALID,0,VALID,24.7548,VALID,326,VALID,0,
2008-12-17, 02:21:04,VALID,1002.83,VALID,0,VALID,94.1251,VALID,0,VALID,24.714,VALID,326,VALID,0,
2008-12-17, 02:22:04,VALID,1002.84,VALID,0,VALID,94.1251,VALID,0,VALID,24.7548,VALID,326,VALID,0,
2008-12-17, 02:23:04,VALID,1002.84,VALID,0,VALID,94.1022,VALID,0,VALID,24.7353,VALID,326,VALID,0,
2008-12-17, 02:24:04,VALID,1002.84,VALID,0,VALID,94.0488,VALID,0,VALID,24.7353,VALID,326,VALID,0,
2008-12-17, 02:25:04,VALID,1002.82,VALID,0,VALID,94.0641,VALID,0,VALID,24.7159,VALID,352,VALID,0.0945313,
2008-12-17, 02:26:04,VALID,1002.83,VALID,0,VALID,94.0565,VALID,0,VALID,24.7353,VALID,357,VALID,0.265625,
2008-12-17, 02:27:04,VALID,1002.85,VALID,0,VALID,94.0488,VALID,0,VALID,24.7159,VALID,16,VALID,0.0683594,
2008-12-17, 02:28:04,VALID,1002.82,VALID,0,VALID,94.0412,VALID,0,VALID,24.714,VALID,81,VALID,0.414844,
2008-12-17, 02:29:04,VALID,1002.81,VALID,0,VALID,94.0107,VALID,0,VALID,24.7529,VALID,80,VALID,0.509766,
2008-12-17, 02:30:04,VALID,1002.82,VALID,0,VALID,93.9497,VALID,0,VALID,24.7743,VALID,80,VALID,0.484375,
2008-12-17, 02:31:04,VALID,1002.81,VALID,0,VALID,93.8963,VALID,0,VALID,24.7937,VALID,80,VALID,0.0445312,
2008-12-17, 02:32:04,VALID,1002.81,VALID,0,VALID,93.82,VALID,0,VALID,24.8132,VALID,80,VALID,0.363672,
2008-12-17, 02:33:04,VALID,1002.8,VALID,0,VALID,93.7513,VALID,0,VALID,24.8132,VALID,80,VALID,0.00585938,
2008-12-17, 02:34:04,VALID,1002.81,VALID,0,VALID,93.6826,VALID,0,VALID,24.8346,VALID,80,VALID,0,
2008-12-17, 02:35:04,VALID,1002.8,VALID,0,VALID,93.6216,VALID,0,VALID,24.8132,VALID,80,VALID,0.113281,
2008-12-17, 02:36:04,VALID,1002.81,VALID,0,VALID,93.5682,VALID,0,VALID,24.8327,VALID,80,VALID,0,
2008-12-17, 02:37:04,VALID,1002.78,VALID,0,VALID,93.5224,VALID,0,VALID,24.8522,VALID,80,VALID,0,
2008-12-17, 02:38:04,VALID,1002.81,VALID,0,VALID,93.4996,VALID,0,VALID,24.8327,VALID,80,VALID,0,
2008-12-17, 02:39:04,VALID,1002.78,VALID,0,VALID,93.4538,VALID,0,VALID,24.8327,VALID,80,VALID,0,
2008-12-17, 02:40:04,VALID,1002.78,VALID,0,VALID,93.3775,VALID,0,VALID,24.8327,VALID,80,VALID,0,
2008-12-17, 02:41:04,VALID,1002.78,VALID,0,VALID,93.3775,VALID,0,VALID,24.8327,VALID,80,VALID,0,
2008-12-17, 02:42:04,VALID,1002.78,VALID,0,VALID,93.4156,VALID,0,VALID,24.8327,VALID,80,VALID,0.144922,
2008-12-17, 02:43:04,VALID,1002.77,VALID,0,VALID,93.4538,VALID,0,VALID,24.8522,VALID,292,VALID,0,
2008-12-17, 02:44:04,VALID,1002.76,VALID,0,VALID,93.4309,VALID,0,VALID,24.8522,VALID,292,VALID,0,
2008-12-17, 02:45:04,VALID,1002.75,VALID,0,VALID,93.3775,VALID,0.100563,VALID,24.8327,VALID,292,VALID,0,
2008-12-17, 02:46:04,VALID,1002.75,VALID,0,VALID,93.3546,VALID,0,VALID,24.8522,VALID,292,VALID,0,
2008-12-17, 02:47:04,VALID,1002.76,VALID,0,VALID,93.3088,VALID,0,VALID,24.8308,VALID,292,VALID,0,
2008-12-17, 02:48:04,VALID,1002.76,VALID,0,VALID,93.2707,VALID,0,VALID,24.8522,VALID,292,VALID,0,
2008-12-17, 02:49:04,VALID,1002.74,VALID,0,VALID,93.2325,VALID,0,VALID,24.8735,VALID,292,VALID,0,
2008-12-17, 02:50:04,VALID,1002.74,VALID,0,VALID,93.1791,VALID,0,VALID,24.8308,VALID,292,VALID,0,
2008-12-17, 02:51:04,VALID,1002.72,VALID,0,VALID,93.1639,VALID,0,VALID,24.8132,VALID,291,VALID,0,
2008-12-17, 02:52:04,VALID,1002.71,VALID,0,VALID,93.1791,VALID,0,VALID,24.8346,VALID,291,VALID,0,
2008-12-17, 02:53:04,VALID,1002.69,VALID,0,VALID,93.1334,VALID,0,VALID,24.7743,VALID,291,VALID,0,
2008-12-17, 02:54:04,VALID,1002.68,VALID,0,VALID,93.1639,VALID,0,VALID,24.7743,VALID,291,VALID,0,
2008-12-17, 02:55:04,VALID,1002.7,VALID,0,VALID,93.1791,VALID,0,VALID,24.7743,VALID,291,VALID,0,
2008-12-17, 02:56:04,VALID,1002.67,VALID,0,VALID,93.1868,VALID,0,VALID,24.7548,VALID,291,VALID,0,
2008-12-17, 02:57:04,VALID,1002.64,VALID,0,VALID,93.1868,VALID,0,VALID,24.7548,VALID,291,VALID,0,
2008-12-17, 02:58:04,VALID,1002.66,VALID,0,VALID,93.1944,VALID,0,VALID,24.7761,VALID,291,VALID,0,
2008-12-17, 02:59:04,VALID,1002.63,VALID,0,VALID,93.1944,VALID,0,VALID,24.7372,VALID,291,VALID,0,
2008-12-17, 03:00:04,VALID,1002.64,VALID,0,VALID,93.2325,VALID,0,VALID,24.7159,VALID,291,VALID,0,
2008-12-17, 03:01:04,VALID,1002.62,VALID,0,VALID,93.2631,VALID,0,VALID,24.7177,VALID,291,VALID,0,
2008-12-17, 03:02:04,VALID,1002.58,VALID,0,VALID,93.2707,VALID,0,VALID,24.6769,VALID,291,VALID,0,
2008-12-17, 03:03:04,VALID,1002.58,VALID,0,VALID,93.2783,VALID,0,VALID,24.6983,VALID,291,VALID,0,
2008-12-17, 03:04:04,VALID,1002.58,VALID,0,VALID,93.3088,VALID,0,VALID,24.6574,VALID,291,VALID,0,
2008-12-17, 03:05:04,VALID,1002.53,VALID,0,VALID,93.3622,VALID,0,VALID,24.638,VALID,291,VALID,0,
2008-12-17, 03:06:04,VALID,1002.58,VALID,0,VALID,93.3928,VALID,0,VALID,24.6593,VALID,291,VALID,0,
2008-12-17, 03:07:04,VALID,1002.58,VALID,0,VALID,93.4233,VALID,0,VALID,24.6185,VALID,291,VALID,0,
2008-12-17, 03:08:04,VALID,1002.57,VALID,0,VALID,93.469,VALID,0,VALID,24.6204,VALID,291,VALID,0,
2008-12-17, 03:09:04,VALID,1002.59,VALID,0,VALID,93.4843,VALID,0,VALID,24.599,VALID,291,VALID,0,
2008-12-17, 03:10:04,VALID,1002.55,VALID,0,VALID,93.5301,VALID,0,VALID,24.599,VALID,291,VALID,0,
2008-12-17, 03:11:04,VALID,1002.54,VALID,0,VALID,93.5606,VALID,0.100563,VALID,24.5777,VALID,291,VALID,0,
2008-12-17, 03:12:04,VALID,1002.57,VALID,0,VALID,93.5606,VALID,0,VALID,24.5796,VALID,291,VALID,0,
2008-12-17, 03:13:04,VALID,1002.53,VALID,0,VALID,93.5758,VALID,0,VALID,24.5796,VALID,291,VALID,0,
2008-12-17, 03:14:04,VALID,1002.55,VALID,0,VALID,93.5911,VALID,0.100563,VALID,24.5601,VALID,291,VALID,0,
2008-12-17, 03:15:04,VALID,1002.52,VALID,0,VALID,93.5987,VALID,0,VALID,24.5796,VALID,291,VALID,0,
2008-12-17, 03:16:04,VALID,1002.54,VALID,0,VALID,93.6292,VALID,0,VALID,24.5796,VALID,291,VALID,0,
2008-12-17, 03:17:04,VALID,1002.54,VALID,0,VALID,93.6445,VALID,0,VALID,24.5582,VALID,291,VALID,0,
2008-12-17, 03:18:04,VALID,1002.53,VALID,0,VALID,93.5987,VALID,0,VALID,24.5796,VALID,291,VALID,0,
2008-12-17, 03:19:04,VALID,1002.55,VALID,0,VALID,93.6521,VALID,0,VALID,24.5796,VALID,291,VALID,0,
2008-12-17, 03:20:04,VALID,1002.54,VALID,0,VALID,93.675,VALID,0,VALID,24.6009,VALID,291,VALID,0,
2008-12-17, 03:21:04,VALID,1002.54,VALID,0,VALID,93.675,VALID,0.100563,VALID,24.5601,VALID,291,VALID,0,
2008-12-17, 03:22:04,VALID,1002.54,VALID,0,VALID,93.6979,VALID,0,VALID,24.5796,VALID,291,VALID,0,
2008-12-17, 03:23:04,VALID,1002.57,VALID,0,VALID,93.6826,VALID,0,VALID,24.5582,VALID,291,VALID,0,
2008-12-17, 03:24:04,VALID,1002.57,VALID,0,VALID,93.6903,VALID,0.100563,VALID,24.5601,VALID,291,VALID,0,
2008-12-17, 03:25:04,VALID,1002.58,VALID,0,VALID,93.7132,VALID,0.100563,VALID,24.5388,VALID,291,VALID,0,
2008-12-17, 03:26:04,VALID,1002.6,VALID,0,VALID,93.7208,VALID,0,VALID,24.5406,VALID,291,VALID,0,
2008-12-17, 03:27:04,VALID,1002.59,VALID,0,VALID,93.7361,VALID,0,VALID,24.5406,VALID,291,VALID,0,
2008-12-17, 03:28:04,VALID,1002.61,VALID,0,VALID,93.7513,VALID,0,VALID,24.523,VALID,291,VALID,0,
2008-12-17, 03:29:04,VALID,1002.64,VALID,0,VALID,93.7818,VALID,0,VALID,24.5017,VALID,291,VALID,0,
2008-12-17, 03:30:04,VALID,1002.62,VALID,0,VALID,93.82,VALID,0.100563,VALID,24.5212,VALID,291,VALID,0,
2008-12-17, 03:31:04,VALID,1002.62,VALID,0,VALID,93.8581,VALID,0,VALID,24.5017,VALID,291,VALID,0,
2008-12-17, 03:32:04,VALID,1002.62,VALID,0,VALID,93.9268,VALID,0,VALID,24.5017,VALID,291,VALID,0,
2008-12-17, 03:33:04,VALID,1002.62,VALID,0,VALID,93.9497,VALID,0.100563,VALID,24.4822,VALID,291,VALID,0,
2008-12-17, 03:34:04,VALID,1002.6,VALID,0,VALID,93.9725,VALID,0,VALID,24.5035,VALID,291,VALID,0,
2008-12-17, 03:35:04,VALID,1002.59,VALID,0,VALID,94.0031,VALID,0,VALID,24.4822,VALID,291,VALID,0,
2008-12-17, 03:36:04,VALID,1002.61,VALID,0,VALID,94.0183,VALID,0,VALID,24.4628,VALID,291,VALID,0,
2008-12-17, 03:37:04,VALID,1002.59,VALID,0,VALID,94.0565,VALID,0,VALID,24.4822,VALID,291,VALID,0,
2008-12-17, 03:38:04,VALID,1002.61,VALID,0,VALID,94.0641,VALID,0,VALID,24.4822,VALID,291,VALID,0,
2008-12-17, 03:39:04,VALID,1002.6,VALID,0,VALID,94.0412,VALID,0.100563,VALID,24.4822,VALID,291,VALID,0,
2008-12-17, 03:40:04,VALID,1002.63,VALID,0,VALID,94.0717,VALID,0,VALID,24.4822,VALID,291,VALID,0,
2008-12-17, 03:41:04,VALID,1002.63,VALID,0,VALID,94.0717,VALID,0,VALID,24.4841,VALID,291,VALID,0,
2008-12-17, 03:42:04,VALID,1002.63,VALID,0,VALID,94.0717,VALID,0,VALID,24.4433,VALID,291,VALID,0,
2008-12-17, 03:43:04,VALID,1002.64,VALID,0,VALID,94.0946,VALID,0.100563,VALID,24.4433,VALID,291,VALID,0,
2008-12-17, 03:44:04,VALID,1002.66,VALID,0,VALID,94.1328,VALID,0,VALID,24.4433,VALID,291,VALID,0,
2008-12-17, 03:45:04,VALID,1002.7,VALID,0,VALID,94.148,VALID,0,VALID,24.4238,VALID,291,VALID,0,
2008-12-17, 03:46:04,VALID,1002.7,VALID,0,VALID,94.1785,VALID,0,VALID,24.4238,VALID,291,VALID,0,
2008-12-17, 03:47:04,VALID,1002.72,VALID,0,VALID,94.1862,VALID,0,VALID,24.4433,VALID,291,VALID,0,
2008-12-17, 03:48:04,VALID,1002.75,VALID,0,VALID,94.1938,VALID,0.100563,VALID,24.422,VALID,291,VALID,0,
2008-12-17, 03:49:04,VALID,1002.77,VALID,0,VALID,94.2319,VALID,0,VALID,24.4433,VALID,291,VALID,0,
2008-12-17, 03:50:04,VALID,1002.78,VALID,0,VALID,94.2014,VALID,0,VALID,24.4433,VALID,291,VALID,0,
2008-12-17, 03:51:04,VALID,1002.8,VALID,0,VALID,94.2167,VALID,0,VALID,24.4238,VALID,291,VALID,0,